Time,TemperatureF,DewpointF,PressureIn,WindDirection,WindDirectionDegrees,WindSpeedMPH,WindSpeedGustMPH,Humidity,HourlyPrecipIn,Conditions,Clouds,dailyrainin,SoftwareType,DateUTC
2013-03-17 00:03:00,61.1,46.2,29.87,SSW,205,6.0,14.0,58,0.00,,,0.00,Wunderground v.1.15,2013-03-17 05:03:00,
2013-03-17 00:09:00,61.1,46.7,29.87,South,173,7.0,14.0,59,0.00,,,0.00,Wunderground v.1.15,2013-03-17 05:09:00,
2013-03-17 00:14:00,60.9,46.5,29.87,SSW,207,11.0,11.0,59,0.00,,,0.00,Wunderground v.1.15,2013-03-17 05:14:00,
2013-03-17 00:20:00,60.9,46.5,29.87,SSW,194,8.0,9.0,59,0.00,,,0.00,Wunderground v.1.15,2013-03-17 05:20:00,
2013-03-17 00:26:00,61.0,46.6,29.86,SSW,209,5.0,12.0,59,0.00,,,0.00,Wunderground v.1.15,2013-03-17 05:26:00,
2013-03-17 00:32:00,61.0,46.6,29.86,SSW,213,10.0,10.0,59,0.00,,,0.00,Wunderground v.1.15,2013-03-17 05:32:00,
2013-03-17 00:37:00,61.0,46.6,29.87,SW,219,10.0,10.0,59,0.00,,,0.00,Wunderground v.1.15,2013-03-17 05:37:00,
2013-03-17 00:43:00,60.9,46.5,29.87,SW,220,12.0,12.0,59,0.00,,,0.00,Wunderground v.1.15,2013-03-17 05:43:00,
2013-03-17 00:49:00,60.7,46.3,29.86,SSW,211,7.0,13.0,59,0.00,,,0.00,Wunderground v.1.15,2013-03-17 05:49:00,
2013-03-17 00:54:00,60.6,46.6,29.86,SSW,210,8.0,13.0,60,0.00,,,0.00,Wunderground v.1.15,2013-03-17 05:54:00,
2013-03-17 01:00:00,60.4,46.4,29.86,SW,222,8.0,9.0,60,0.00,,,0.00,Wunderground v.1.15,2013-03-17 06:00:00,
2013-03-17 01:05:00,60.4,46.4,29.86,SSW,202,8.0,15.0,60,0.00,,,0.00,Wunderground v.1.15,2013-03-17 06:05:00,
2013-03-17 01:11:00,60.3,46.4,29.86,South,180,12.0,12.0,60,0.00,,,0.00,Wunderground v.1.15,2013-03-17 06:11:00,
2013-03-17 01:17:00,60.3,46.4,29.85,SSW,209,15.0,15.0,60,0.00,,,0.00,Wunderground v.1.15,2013-03-17 06:17:00,
2013-03-17 01:22:00,60.5,46.5,29.85,SSW,203,12.0,12.0,60,0.00,,,0.00,Wunderground v.1.15,2013-03-17 06:22:00,
2013-03-17 01:27:00,60.6,46.6,29.85,SW,221,20.0,20.0,60,0.00,,,0.00,Wunderground v.1.15,2013-03-17 06:27:00,
2013-03-17 01:32:00,60.7,46.3,29.85,SW,234,15.0,15.0,59,0.00,,,0.00,Wunderground v.1.15,2013-03-17 06:32:00,
2013-03-17 01:38:00,60.8,46.4,29.85,WSW,240,11.0,15.0,59,0.00,,,0.00,Wunderground v.1.15,2013-03-17 06:38:00,
2013-03-17 01:43:00,60.8,46.4,29.85,SSW,194,13.0,13.0,59,0.00,,,0.00,Wunderground v.1.15,2013-03-17 06:43:00,
2013-03-17 01:49:00,60.6,46.2,29.85,SW,215,14.0,14.0,59,0.00,,,0.00,Wunderground v.1.15,2013-03-17 06:49:00,
2013-03-17 01:54:00,60.5,46.5,29.85,SW,236,10.0,10.0,60,0.00,,,0.00,Wunderground v.1.15,2013-03-17 06:54:00,
2013-03-17 01:59:00,60.4,46.4,29.85,SSW,199,7.0,13.0,60,0.00,,,0.00,Wunderground v.1.15,2013-03-17 06:59:00,
2013-03-17 02:04:00,60.3,46.4,29.85,SW,223,13.0,16.0,60,0.00,,,0.00,Wunderground v.1.15,2013-03-17 07:04:00,
2013-03-17 02:09:00,60.4,46.4,29.85,SSW,194,7.0,19.0,60,0.00,,,0.00,Wunderground v.1.15,2013-03-17 07:09:00,
2013-03-17 02:14:00,60.3,46.4,29.85,SSW,205,5.0,13.0,60,0.00,,,0.00,Wunderground v.1.15,2013-03-17 07:14:00,
2013-03-17 02:19:00,60.1,46.2,29.86,WSW,246,10.0,17.0,60,0.00,,,0.00,Wunderground v.1.15,2013-03-17 07:19:00,
2013-03-17 02:24:00,60.0,46.1,29.85,SW,214,14.0,17.0,60,0.00,,,0.00,Wunderground v.1.15,2013-03-17 07:24:00,
2013-03-17 02:29:00,59.9,46.0,29.85,SW,232,16.0,18.0,60,0.00,,,0.00,Wunderground v.1.15,2013-03-17 07:29:00,
2013-03-17 02:34:00,59.9,46.0,29.85,SSW,207,9.0,20.0,60,0.00,,,0.00,Wunderground v.1.15,2013-03-17 07:34:00,
2013-03-17 02:39:00,59.8,45.9,29.85,SW,227,9.0,20.0,60,0.00,,,0.00,Wunderground v.1.15,2013-03-17 07:39:00,
2013-03-17 02:44:00,59.6,46.1,29.85,SW,223,15.0,17.0,61,0.00,,,0.00,Wunderground v.1.15,2013-03-17 07:44:00,
2013-03-17 02:49:00,59.5,46.0,29.85,SW,227,13.0,17.0,61,0.00,,,0.00,Wunderground v.1.15,2013-03-17 07:49:00,
2013-03-17 02:54:00,59.4,45.9,29.85,South,190,11.0,18.0,61,0.00,,,0.00,Wunderground v.1.15,2013-03-17 07:54:00,
2013-03-17 02:59:00,59.2,45.8,29.85,SW,236,14.0,18.0,61,0.00,,,0.00,Wunderground v.1.15,2013-03-17 07:59:00,
2013-03-17 03:04:00,59.1,45.7,29.84,SSW,207,10.0,18.0,61,0.00,,,0.00,Wunderground v.1.15,2013-03-17 08:04:00,
2013-03-17 03:09:00,59.0,45.6,29.84,South,169,8.0,18.0,61,0.00,,,0.00,Wunderground v.1.15,2013-03-17 08:09:00,
2013-03-17 03:14:00,59.1,45.7,29.84,SW,219,17.0,21.0,61,0.00,,,0.00,Wunderground v.1.15,2013-03-17 08:14:00,
2013-03-17 03:19:00,59.4,45.9,29.84,SW,225,17.0,21.0,61,0.00,,,0.00,Wunderground v.1.15,2013-03-17 08:19:00,
2013-03-17 03:24:00,59.4,45.9,29.84,SW,236,13.0,20.0,61,0.00,,,0.00,Wunderground v.1.15,2013-03-17 08:24:00,
2013-03-17 03:29:00,59.4,45.9,29.84,SSW,197,7.0,21.0,61,0.00,,,0.00,Wunderground v.1.15,2013-03-17 08:29:00,
2013-03-17 03:34:00,59.3,45.8,29.84,SSW,192,4.0,22.0,61,0.00,,,0.00,Wunderground v.1.15,2013-03-17 08:34:00,
2013-03-17 03:39:00,59.1,45.7,29.84,SSW,198,8.0,22.0,61,0.00,,,0.00,Wunderground v.1.15,2013-03-17 08:39:00,
2013-03-17 03:44:00,59.0,45.6,29.84,WSW,238,12.0,17.0,61,0.00,,,0.00,Wunderground v.1.15,2013-03-17 08:44:00,
2013-03-17 03:49:00,58.9,45.9,29.84,SW,234,14.0,17.0,62,0.00,,,0.00,Wunderground v.1.15,2013-03-17 08:49:00,
2013-03-17 03:54:00,58.8,45.8,29.84,WSW,251,16.0,18.0,62,0.00,,,0.00,Wunderground v.1.15,2013-03-17 08:54:00,
2013-03-17 03:59:00,58.9,45.9,29.84,WSW,237,14.0,22.0,62,0.00,,,0.00,Wunderground v.1.15,2013-03-17 08:59:00,
2013-03-17 04:04:00,58.8,45.8,29.84,SW,229,18.0,18.0,62,0.00,,,0.00,Wunderground v.1.15,2013-03-17 09:04:00,
2013-03-17 04:09:00,58.7,45.7,29.84,WSW,248,14.0,19.0,62,0.00,,,0.00,Wunderground v.1.15,2013-03-17 09:09:00,
2013-03-17 04:14:00,58.6,45.6,29.84,WSW,251,10.0,18.0,62,0.00,,,0.00,Wunderground v.1.15,2013-03-17 09:14:00,
2013-03-17 04:19:00,58.5,45.9,29.84,SW,236,15.0,19.0,63,0.00,,,0.00,Wunderground v.1.15,2013-03-17 09:19:00,
2013-03-17 04:24:00,58.2,45.7,29.84,South,175,5.0,14.0,63,0.00,,,0.00,Wunderground v.1.15,2013-03-17 09:24:00,
2013-03-17 04:29:00,57.9,45.4,29.84,SSW,203,7.0,15.0,63,0.00,,,0.00,Wunderground v.1.15,2013-03-17 09:29:00,
2013-03-17 04:34:00,57.4,45.3,29.85,SSW,192,9.0,18.0,64,0.00,,,0.00,Wunderground v.1.15,2013-03-17 09:34:00,
2013-03-17 04:39:00,57.3,45.2,29.85,SW,228,13.0,18.0,64,0.00,,,0.00,Wunderground v.1.15,2013-03-17 09:39:00,
2013-03-17 04:44:00,57.2,45.5,29.85,SSW,209,8.0,18.0,65,0.00,,,0.00,Wunderground v.1.15,2013-03-17 09:44:00,
2013-03-17 04:49:00,57.2,45.5,29.85,SW,234,10.0,18.0,65,0.00,,,0.00,Wunderground v.1.15,2013-03-17 09:49:00,
2013-03-17 04:55:00,57.0,45.3,29.85,SE,127,5.0,14.0,65,0.00,,,0.00,Wunderground v.1.15,2013-03-17 09:55:00,
2013-03-17 05:00:00,56.7,45.1,29.85,South,187,4.0,16.0,65,0.00,,,0.00,Wunderground v.1.15,2013-03-17 10:00:00,
2013-03-17 05:05:00,56.6,45.0,29.85,South,190,7.0,13.0,65,0.00,,,0.00,Wunderground v.1.15,2013-03-17 10:05:00,
2013-03-17 05:10:00,56.4,45.2,29.85,SSW,213,9.0,14.0,66,0.00,,,0.00,Wunderground v.1.15,2013-03-17 10:10:00,
2013-03-17 05:15:00,56.3,45.1,29.85,SW,214,16.0,16.0,66,0.00,,,0.00,Wunderground v.1.15,2013-03-17 10:15:00,
2013-03-17 05:20:00,56.4,45.2,29.85,SSW,201,11.0,16.0,66,0.00,,,0.00,Wunderground v.1.15,2013-03-17 10:20:00,
2013-03-17 05:25:00,56.2,45.0,29.85,SSW,210,7.0,14.0,66,0.00,,,0.00,Wunderground v.1.15,2013-03-17 10:25:00,
2013-03-17 05:30:00,56.2,45.4,29.86,SSW,196,5.0,14.0,67,0.00,,,0.00,Wunderground v.1.15,2013-03-17 10:30:00,
2013-03-17 05:35:00,56.0,45.2,29.86,SSW,213,7.0,14.0,67,0.00,,,0.00,Wunderground v.1.15,2013-03-17 10:35:00,
2013-03-17 05:40:00,55.8,45.0,29.86,SSE,149,6.0,14.0,67,0.00,,,0.00,Wunderground v.1.15,2013-03-17 10:40:00,
2013-03-17 05:45:00,55.8,45.4,29.86,SSW,205,7.0,14.0,68,0.00,,,0.00,Wunderground v.1.15,2013-03-17 10:45:00,
2013-03-17 05:50:00,55.8,45.4,29.86,South,173,5.0,14.0,68,0.00,,,0.00,Wunderground v.1.15,2013-03-17 10:50:00,
2013-03-17 05:55:00,55.7,45.3,29.86,SW,215,9.0,14.0,68,0.00,,,0.00,Wunderground v.1.15,2013-03-17 10:55:00,
2013-03-17 06:00:00,55.9,45.5,29.86,SSW,199,8.0,14.0,68,0.00,,,0.00,Wunderground v.1.15,2013-03-17 11:00:00,
2013-03-17 06:05:00,55.9,45.5,29.86,SW,231,12.0,12.0,68,0.00,,,0.00,Wunderground v.1.15,2013-03-17 11:05:00,
2013-03-17 06:10:00,55.9,45.5,29.86,SSW,211,7.0,14.0,68,0.00,,,0.00,Wunderground v.1.15,2013-03-17 11:10:00,
2013-03-17 06:15:00,55.9,45.5,29.86,SSW,203,9.0,12.0,68,0.00,,,0.00,Wunderground v.1.15,2013-03-17 11:15:00,
2013-03-17 06:20:00,55.9,45.5,29.86,SSW,201,7.0,8.0,68,0.00,,,0.00,Wunderground v.1.15,2013-03-17 11:20:00,
2013-03-17 06:25:00,55.8,45.4,29.87,South,178,7.0,13.0,68,0.00,,,0.00,Wunderground v.1.15,2013-03-17 11:25:00,
2013-03-17 06:30:00,55.8,45.8,29.87,SSE,164,8.0,8.0,69,0.00,,,0.00,Wunderground v.1.15,2013-03-17 11:30:00,
2013-03-17 06:35:00,55.8,45.8,29.87,SSW,212,8.0,13.0,69,0.00,,,0.00,Wunderground v.1.15,2013-03-17 11:35:00,
2013-03-17 06:40:00,55.9,45.5,29.87,South,180,8.0,8.0,68,0.00,,,0.00,Wunderground v.1.15,2013-03-17 11:40:00,
2013-03-17 06:45:00,55.9,45.9,29.87,SSW,209,11.0,12.0,69,0.00,,,0.00,Wunderground v.1.15,2013-03-17 11:45:00,
2013-03-17 06:50:00,55.7,45.7,29.87,SW,215,9.0,9.0,69,0.00,,,0.00,Wunderground v.1.15,2013-03-17 11:50:00,
2013-03-17 06:55:00,55.7,45.7,29.87,SW,234,12.0,13.0,69,0.00,,,0.00,Wunderground v.1.15,2013-03-17 11:55:00,
2013-03-17 07:00:00,55.5,45.9,29.87,SW,225,11.0,11.0,70,0.00,,,0.00,Wunderground v.1.15,2013-03-17 12:00:00,
2013-03-17 07:05:00,55.5,45.9,29.87,SSW,204,6.0,15.0,70,0.00,,,0.00,Wunderground v.1.15,2013-03-17 12:05:00,
2013-03-17 07:10:00,55.3,46.1,29.88,SW,216,7.0,9.0,71,0.00,,,0.00,Wunderground v.1.15,2013-03-17 12:10:00,
2013-03-17 07:15:00,55.2,46.0,29.87,SSW,208,7.0,15.0,71,0.00,,,0.00,Wunderground v.1.15,2013-03-17 12:15:00,
2013-03-17 07:20:00,55.3,46.1,29.88,SSW,203,13.0,13.0,71,0.00,,,0.00,Wunderground v.1.15,2013-03-17 12:20:00,
2013-03-17 07:25:00,55.2,46.0,29.88,SSW,213,5.0,16.0,71,0.00,,,0.00,Wunderground v.1.15,2013-03-17 12:25:00,
2013-03-17 07:30:00,54.9,46.0,29.88,SSW,209,7.0,9.0,72,0.00,,,0.00,Wunderground v.1.15,2013-03-17 12:30:00,
2013-03-17 07:35:00,54.7,46.2,29.88,SSW,211,7.0,12.0,73,0.00,,,0.00,Wunderground v.1.15,2013-03-17 12:35:00,
2013-03-17 07:40:00,54.6,46.5,29.88,SSW,213,7.0,8.0,74,0.00,,,0.00,Wunderground v.1.15,2013-03-17 12:40:00,
2013-03-17 07:45:00,54.4,46.3,29.88,SSW,209,12.0,16.0,74,0.00,,,0.00,Wunderground v.1.15,2013-03-17 12:45:00,
2013-03-17 07:50:00,54.5,46.7,29.88,South,188,11.0,12.0,75,0.00,,,0.00,Wunderground v.1.15,2013-03-17 12:50:00,
2013-03-17 07:55:00,54.6,46.8,29.88,SW,223,12.0,15.0,75,0.00,,,0.00,Wunderground v.1.15,2013-03-17 12:55:00,
2013-03-17 08:00:00,54.4,46.6,29.88,SW,230,10.0,14.0,75,0.00,,,0.00,Wunderground v.1.15,2013-03-17 13:00:00,
2013-03-17 08:05:00,54.2,46.8,29.89,SSW,209,8.0,16.0,76,0.00,,,0.00,Wunderground v.1.15,2013-03-17 13:05:00,
2013-03-17 08:10:00,54.2,47.1,29.89,SW,220,15.0,16.0,77,0.00,,,0.00,Wunderground v.1.15,2013-03-17 13:10:00,
2013-03-17 08:15:00,54.4,47.3,29.89,SSW,203,10.0,17.0,77,0.00,,,0.00,Wunderground v.1.15,2013-03-17 13:15:00,
2013-03-17 08:20:00,54.6,47.2,29.89,SW,221,5.0,16.0,76,0.00,,,0.00,Wunderground v.1.15,2013-03-17 13:20:00,
2013-03-17 08:25:00,54.6,47.5,29.89,SW,225,12.0,19.0,77,0.00,,,0.00,Wunderground v.1.15,2013-03-17 13:25:00,
2013-03-17 08:30:00,54.5,47.4,29.89,SW,214,11.0,11.0,77,0.00,,,0.00,Wunderground v.1.15,2013-03-17 13:30:00,
2013-03-17 08:35:00,54.5,47.4,29.89,WSW,244,6.0,14.0,77,0.00,,,0.00,Wunderground v.1.15,2013-03-17 13:35:00,
2013-03-17 08:40:00,54.4,47.3,29.89,SW,223,3.0,9.0,77,0.00,,,0.00,Wunderground v.1.15,2013-03-17 13:40:00,
2013-03-17 08:45:00,54.5,47.8,29.89,SSW,206,10.0,15.0,78,0.00,,,0.00,Wunderground v.1.15,2013-03-17 13:45:00,
2013-03-17 08:50:00,54.6,47.9,29.89,SW,217,11.0,14.0,78,0.00,,,0.00,Wunderground v.1.15,2013-03-17 13:50:00,
2013-03-17 08:55:00,54.6,47.5,29.89,SW,229,9.0,16.0,77,0.00,,,0.00,Wunderground v.1.15,2013-03-17 13:55:00,
2013-03-17 09:00:00,54.5,47.8,29.89,West,262,8.0,14.0,78,0.00,,,0.00,Wunderground v.1.15,2013-03-17 14:00:00,
2013-03-17 09:05:00,54.5,47.8,29.89,WSW,250,14.0,14.0,78,0.00,,,0.00,Wunderground v.1.15,2013-03-17 14:05:00,
2013-03-17 09:10:00,54.5,47.8,29.89,SSW,211,8.0,10.0,78,0.00,,,0.00,Wunderground v.1.15,2013-03-17 14:10:00,
2013-03-17 09:15:00,54.6,47.9,29.89,WSW,254,7.0,15.0,78,0.00,,,0.00,Wunderground v.1.15,2013-03-17 14:15:00,
2013-03-17 09:20:00,54.7,48.0,29.89,West,269,5.0,12.0,78,0.00,,,0.00,Wunderground v.1.15,2013-03-17 14:20:00,
2013-03-17 09:26:00,54.8,48.1,29.89,WNW,290,9.0,13.0,78,0.00,,,0.00,Wunderground v.1.15,2013-03-17 14:26:00,
2013-03-17 09:31:00,54.8,47.7,29.90,SSW,211,11.0,11.0,77,0.00,,,0.00,Wunderground v.1.15,2013-03-17 14:31:00,
2013-03-17 09:36:00,54.8,48.1,29.90,SW,228,8.0,15.0,78,0.00,,,0.00,Wunderground v.1.15,2013-03-17 14:36:00,
2013-03-17 09:41:00,54.9,48.2,29.90,SW,224,6.0,13.0,78,0.00,,,0.00,Wunderground v.1.15,2013-03-17 14:41:00,
2013-03-17 09:46:00,55.1,48.0,29.90,SW,221,13.0,15.0,77,0.00,,,0.00,Wunderground v.1.15,2013-03-17 14:46:00,
2013-03-17 09:51:00,55.3,48.2,29.90,SSW,200,9.0,12.0,77,0.00,,,0.00,Wunderground v.1.15,2013-03-17 14:51:00,
2013-03-17 09:56:00,55.4,48.3,29.90,SW,223,10.0,13.0,77,0.00,,,0.00,Wunderground v.1.15,2013-03-17 14:56:00,
2013-03-17 10:01:00,55.7,48.6,29.90,WSW,239,12.0,12.0,77,0.00,,,0.00,Wunderground v.1.15,2013-03-17 15:01:00,
2013-03-17 10:06:00,56.0,48.5,29.89,WSW,246,10.0,15.0,76,0.00,,,0.00,Wunderground v.1.15,2013-03-17 15:06:00,
2013-03-17 10:11:00,56.3,48.8,29.89,SW,216,10.0,13.0,76,0.00,,,0.00,Wunderground v.1.15,2013-03-17 15:11:00,
2013-03-17 10:17:00,56.6,49.1,29.89,WSW,243,10.0,14.0,76,0.00,,,0.00,Wunderground v.1.15,2013-03-17 15:17:00,
2013-03-17 10:22:00,56.9,49.1,29.90,SW,216,7.0,12.0,75,0.00,,,0.00,Wunderground v.1.15,2013-03-17 15:22:00,
2013-03-17 10:27:00,57.1,49.2,29.89,SSW,208,7.0,12.0,75,0.00,,,0.00,Wunderground v.1.15,2013-03-17 15:27:00,
2013-03-17 10:32:00,57.3,49.4,29.89,WSW,243,5.0,8.0,75,0.00,,,0.00,Wunderground v.1.15,2013-03-17 15:32:00,
2013-03-17 10:37:00,57.5,49.6,29.89,WSW,244,7.0,9.0,75,0.00,,,0.00,Wunderground v.1.15,2013-03-17 15:37:00,
2013-03-17 10:42:00,57.7,49.8,29.90,SW,221,9.0,10.0,75,0.00,,,0.00,Wunderground v.1.15,2013-03-17 15:42:00,
2013-03-17 10:47:00,57.7,49.8,29.90,WSW,242,8.0,10.0,75,0.00,,,0.00,Wunderground v.1.15,2013-03-17 15:47:00,
2013-03-17 10:52:00,58.1,50.2,29.90,WSW,252,7.0,9.0,75,0.00,,,0.00,Wunderground v.1.15,2013-03-17 15:52:00,
2013-03-17 10:57:00,58.9,50.6,29.89,WNW,286,5.0,10.0,74,0.00,,,0.00,Wunderground v.1.15,2013-03-17 15:57:00,
2013-03-17 11:02:00,59.5,50.5,29.89,WNW,292,3.0,7.0,72,0.00,,,0.00,Wunderground v.1.15,2013-03-17 16:02:00,
2013-03-17 11:07:00,59.1,50.1,29.88,WNW,295,8.0,12.0,72,0.00,,,0.00,Wunderground v.1.15,2013-03-17 16:07:00,
2013-03-17 11:12:00,58.9,50.3,29.88,West,278,3.0,9.0,73,0.00,,,0.00,Wunderground v.1.15,2013-03-17 16:12:00,
2013-03-17 11:17:00,59.1,50.5,29.88,WNW,284,10.0,13.0,73,0.00,,,0.00,Wunderground v.1.15,2013-03-17 16:17:00,
2013-03-17 11:22:00,59.4,50.4,29.88,NW,314,6.0,11.0,72,0.00,,,0.00,Wunderground v.1.15,2013-03-17 16:22:00,
2013-03-17 11:28:00,59.6,50.6,29.88,NW,311,7.0,11.0,72,0.00,,,0.00,Wunderground v.1.15,2013-03-17 16:28:00,
2013-03-17 11:33:00,60.0,50.9,29.88,WSW,238,5.0,7.0,72,0.00,,,0.00,Wunderground v.1.15,2013-03-17 16:33:00,
2013-03-17 11:38:00,60.5,50.7,29.88,West,263,9.0,9.0,70,0.00,,,0.00,Wunderground v.1.15,2013-03-17 16:38:00,
2013-03-17 11:43:00,60.3,51.2,29.88,WSW,249,10.0,10.0,72,0.00,,,0.00,Wunderground v.1.15,2013-03-17 16:43:00,
2013-03-17 11:48:00,60.1,50.7,29.88,West,279,9.0,11.0,71,0.00,,,0.00,Wunderground v.1.15,2013-03-17 16:48:00,
2013-03-17 11:53:00,60.1,50.7,29.88,NNW,340,3.0,10.0,71,0.00,,,0.00,Wunderground v.1.15,2013-03-17 16:53:00,
2013-03-17 11:58:00,60.5,50.7,29.88,SW,234,9.0,10.0,70,0.00,,,0.00,Wunderground v.1.15,2013-03-17 16:58:00,
2013-03-17 12:03:00,60.7,50.5,29.87,WNW,292,1.0,8.0,69,0.00,,,0.00,Wunderground v.1.15,2013-03-17 17:03:00,
2013-03-17 12:08:00,61.4,51.1,29.87,WNW,284,6.0,8.0,69,0.00,,,0.00,Wunderground v.1.15,2013-03-17 17:08:00,
2013-03-17 12:13:00,61.7,50.6,29.86,WSW,241,6.0,9.0,67,0.00,,,0.00,Wunderground v.1.15,2013-03-17 17:13:00,
2013-03-17 12:18:00,62.1,51.4,29.87,SW,229,9.0,9.0,68,0.00,,,0.00,Wunderground v.1.15,2013-03-17 17:18:00,
2013-03-17 12:23:00,62.6,51.1,29.86,SW,220,8.0,9.0,66,0.00,,,0.00,Wunderground v.1.15,2013-03-17 17:23:00,
2013-03-17 12:28:00,62.9,50.5,29.86,NW,310,7.0,9.0,64,0.00,,,0.00,Wunderground v.1.15,2013-03-17 17:28:00,
2013-03-17 12:33:00,62.9,50.1,29.86,WSW,244,4.0,14.0,63,0.00,,,0.00,Wunderground v.1.15,2013-03-17 17:33:00,
2013-03-17 12:38:00,63.1,50.3,29.85,SW,219,11.0,14.0,63,0.00,,,0.00,Wunderground v.1.15,2013-03-17 17:38:00,
2013-03-17 12:43:00,62.6,49.0,29.85,WNW,300,6.0,17.0,61,0.00,,,0.00,Wunderground v.1.15,2013-03-17 17:43:00,
2013-03-17 12:48:00,62.9,49.2,29.85,WSW,256,9.0,17.0,61,0.00,,,0.00,Wunderground v.1.15,2013-03-17 17:48:00,
2013-03-17 12:53:00,62.7,48.6,29.84,WSW,248,3.0,16.0,60,0.00,,,0.00,Wunderground v.1.15,2013-03-17 17:53:00,
2013-03-17 12:58:00,62.9,48.8,29.85,SSW,196,2.0,16.0,60,0.00,,,0.00,Wunderground v.1.15,2013-03-17 17:58:00,
2013-03-17 13:03:00,63.3,48.7,29.84,SW,221,8.0,18.0,59,0.00,,,0.00,Wunderground v.1.15,2013-03-17 18:03:00,
2013-03-17 13:08:00,63.3,48.7,29.84,SSW,213,5.0,18.0,59,0.00,,,0.00,Wunderground v.1.15,2013-03-17 18:08:00,
2013-03-17 13:13:00,63.8,48.3,29.83,SSW,199,6.0,15.0,57,0.00,,,0.00,Wunderground v.1.15,2013-03-17 18:13:00,
2013-03-17 13:18:00,63.7,48.2,29.84,SSW,195,10.0,15.0,57,0.00,,,0.00,Wunderground v.1.15,2013-03-17 18:18:00,
2013-03-17 13:23:00,64.1,48.5,29.83,NNW,328,6.0,9.0,57,0.00,,,0.00,Wunderground v.1.15,2013-03-17 18:23:00,
2013-03-17 13:28:00,64.8,48.7,29.83,WSW,237,3.0,13.0,56,0.00,,,0.00,Wunderground v.1.15,2013-03-17 18:28:00,
2013-03-17 13:33:00,64.4,48.4,29.83,SSW,192,5.0,10.0,56,0.00,,,0.00,Wunderground v.1.15,2013-03-17 18:33:00,
2013-03-17 13:38:00,64.4,48.4,29.83,SSW,207,1.0,10.0,56,0.00,,,0.00,Wunderground v.1.15,2013-03-17 18:38:00,
2013-03-17 13:43:00,64.3,48.3,29.83,West,281,11.0,11.0,56,0.00,,,0.00,Wunderground v.1.15,2013-03-17 18:43:00,
2013-03-17 13:48:00,63.9,47.9,29.83,SE,126,3.0,17.0,56,0.00,,,0.00,Wunderground v.1.15,2013-03-17 18:48:00,
2013-03-17 13:53:00,63.8,47.3,29.83,South,190,6.0,18.0,55,0.00,,,0.00,Wunderground v.1.15,2013-03-17 18:53:00,
2013-03-17 13:58:00,63.9,48.4,29.83,SW,219,7.0,18.0,57,0.00,,,0.00,Wunderground v.1.15,2013-03-17 18:58:00,
2013-03-17 14:03:00,64.0,48.0,29.82,WNW,289,9.0,20.0,56,0.00,,,0.00,Wunderground v.1.15,2013-03-17 19:03:00,
2013-03-17 14:08:00,63.7,48.2,29.82,SSW,201,10.0,20.0,57,0.00,,,0.00,Wunderground v.1.15,2013-03-17 19:08:00,
2013-03-17 14:13:00,64.0,48.5,29.82,South,173,5.0,14.0,57,0.00,,,0.00,Wunderground v.1.15,2013-03-17 19:13:00,
2013-03-17 14:18:00,64.5,48.0,29.83,SSW,200,7.0,14.0,55,0.00,,,0.00,Wunderground v.1.15,2013-03-17 19:18:00,
2013-03-17 14:23:00,64.3,47.8,29.82,South,178,0.0,13.0,55,0.00,,,0.00,Wunderground v.1.15,2013-03-17 19:23:00,
2013-03-17 14:29:00,63.8,46.8,29.82,SSW,192,15.0,19.0,54,0.00,,,0.00,Wunderground v.1.15,2013-03-17 19:29:00,
2013-03-17 14:34:00,63.5,47.0,29.82,South,190,11.0,20.0,55,0.00,,,0.00,Wunderground v.1.15,2013-03-17 19:34:00,
2013-03-17 14:39:00,63.8,47.3,29.82,WSW,247,5.0,20.0,55,0.00,,,0.00,Wunderground v.1.15,2013-03-17 19:39:00,
2013-03-17 14:44:00,64.3,47.3,29.82,SW,222,10.0,13.0,54,0.00,,,0.00,Wunderground v.1.15,2013-03-17 19:44:00,
2013-03-17 14:49:00,64.8,47.3,29.82,South,184,7.0,17.0,53,0.00,,,0.00,Wunderground v.1.15,2013-03-17 19:49:00,
2013-03-17 14:54:00,65.0,46.9,29.81,SE,145,2.0,13.0,52,0.00,,,0.00,Wunderground v.1.15,2013-03-17 19:54:00,
2013-03-17 14:59:00,65.3,46.2,29.81,ESE,119,9.0,19.0,50,0.00,,,0.00,Wunderground v.1.15,2013-03-17 19:59:00,
2013-03-17 15:04:00,65.0,46.4,29.81,West,277,18.0,18.0,51,0.00,,,0.00,Wunderground v.1.15,2013-03-17 20:04:00,
2013-03-17 15:09:00,64.2,46.2,29.81,WSW,237,8.0,18.0,52,0.00,,,0.00,Wunderground v.1.15,2013-03-17 20:09:00,
2013-03-17 15:14:00,64.0,46.5,29.81,WSW,244,7.0,15.0,53,0.00,,,0.00,Wunderground v.1.15,2013-03-17 20:14:00,
2013-03-17 15:19:00,63.6,46.6,29.81,SSW,195,8.0,20.0,54,0.00,,,0.00,Wunderground v.1.15,2013-03-17 20:19:00,
2013-03-17 15:24:00,63.6,46.6,29.81,WNW,292,4.0,17.0,54,0.00,,,0.00,Wunderground v.1.15,2013-03-17 20:24:00,
2013-03-17 15:29:00,63.9,46.4,29.81,SSW,204,4.0,17.0,53,0.00,,,0.00,Wunderground v.1.15,2013-03-17 20:29:00,
2013-03-17 15:34:00,64.0,46.5,29.81,SSW,197,5.0,12.0,53,0.00,,,0.00,Wunderground v.1.15,2013-03-17 20:34:00,
2013-03-17 15:39:00,63.7,45.7,29.81,WSW,248,6.0,12.0,52,0.00,,,0.00,Wunderground v.1.15,2013-03-17 20:39:00,
2013-03-17 15:44:00,63.7,45.7,29.81,SW,224,9.0,14.0,52,0.00,,,0.00,Wunderground v.1.15,2013-03-17 20:44:00,
2013-03-17 15:49:00,63.5,45.6,29.81,WSW,245,10.0,15.0,52,0.00,,,0.00,Wunderground v.1.15,2013-03-17 20:49:00,
2013-03-17 15:54:00,62.9,45.0,29.81,SW,214,8.0,17.0,52,0.00,,,0.00,Wunderground v.1.15,2013-03-17 20:54:00,
2013-03-17 15:59:00,62.9,45.5,29.81,WSW,246,6.0,17.0,53,0.00,,,0.00,Wunderground v.1.15,2013-03-17 20:59:00,
2013-03-17 16:04:00,63.1,45.2,29.81,WNW,295,10.0,15.0,52,0.00,,,0.00,Wunderground v.1.15,2013-03-17 21:04:00,
2013-03-17 16:09:00,63.2,44.8,29.80,West,275,6.0,15.0,51,0.00,,,0.00,Wunderground v.1.15,2013-03-17 21:09:00,
2013-03-17 16:14:00,63.1,44.7,29.80,SW,215,6.0,12.0,51,0.00,,,0.00,Wunderground v.1.15,2013-03-17 21:14:00,
2013-03-17 16:19:00,63.0,44.6,29.80,SW,219,2.0,14.0,51,0.00,,,0.00,Wunderground v.1.15,2013-03-17 21:19:00,
2013-03-17 16:24:00,63.2,44.8,29.80,South,180,5.0,15.0,51,0.00,,,0.00,Wunderground v.1.15,2013-03-17 21:24:00,
2013-03-17 16:29:00,63.2,44.8,29.80,SW,234,2.0,15.0,51,0.00,,,0.00,Wunderground v.1.15,2013-03-17 21:29:00,
2013-03-17 16:34:00,63.1,44.7,29.81,South,189,0.0,12.0,51,0.00,,,0.00,Wunderground v.1.15,2013-03-17 21:34:00,
2013-03-17 16:39:00,63.3,44.9,29.80,SSW,207,6.0,12.0,51,0.00,,,0.00,Wunderground v.1.15,2013-03-17 21:39:00,
2013-03-17 16:44:00,63.2,44.8,29.80,WSW,247,7.0,17.0,51,0.00,,,0.00,Wunderground v.1.15,2013-03-17 21:44:00,
2013-03-17 16:50:00,63.0,44.6,29.80,SSW,209,8.0,17.0,51,0.00,,,0.00,Wunderground v.1.15,2013-03-17 21:50:00,
2013-03-17 16:55:00,63.3,45.4,29.80,SW,225,8.0,13.0,52,0.00,,,0.00,Wunderground v.1.15,2013-03-17 21:55:00,
2013-03-17 17:00:00,63.6,45.1,29.80,SSW,198,7.0,13.0,51,0.00,,,0.00,Wunderground v.1.15,2013-03-17 22:00:00,
2013-03-17 17:05:00,63.5,45.6,29.80,WSW,248,7.0,14.0,52,0.00,,,0.00,Wunderground v.1.15,2013-03-17 22:05:00,
2013-03-17 17:10:00,63.3,45.4,29.80,WSW,238,9.0,14.0,52,0.00,,,0.00,Wunderground v.1.15,2013-03-17 22:10:00,
2013-03-17 17:15:00,63.2,45.8,29.80,SW,232,11.0,12.0,53,0.00,,,0.00,Wunderground v.1.15,2013-03-17 22:15:00,
2013-03-17 17:20:00,62.6,45.7,29.80,SSW,195,7.0,17.0,54,0.00,,,0.00,Wunderground v.1.15,2013-03-17 22:20:00,
2013-03-17 17:25:00,62.3,45.9,29.80,SW,221,5.0,8.0,55,0.00,,,0.00,Wunderground v.1.15,2013-03-17 22:25:00,
2013-03-17 17:30:00,62.0,45.6,29.80,WSW,250,7.0,12.0,55,0.00,,,0.00,Wunderground v.1.15,2013-03-17 22:30:00,
2013-03-17 17:35:00,61.6,45.3,29.80,SSW,193,3.0,17.0,55,0.00,,,0.00,Wunderground v.1.15,2013-03-17 22:35:00,
2013-03-17 17:40:00,61.3,45.0,29.80,South,179,4.0,17.0,55,0.00,,,0.00,Wunderground v.1.15,2013-03-17 22:40:00,
2013-03-17 17:45:00,61.3,45.5,29.80,SSE,167,5.0,8.0,56,0.00,,,0.00,Wunderground v.1.15,2013-03-17 22:45:00,
2013-03-17 17:50:00,61.3,45.0,29.80,SSW,211,6.0,8.0,55,0.00,,,0.00,Wunderground v.1.15,2013-03-17 22:50:00,
2013-03-17 17:55:00,61.3,45.0,29.80,SSW,194,2.0,9.0,55,0.00,,,0.00,Wunderground v.1.15,2013-03-17 22:55:00,
2013-03-17 18:00:00,61.3,45.5,29.80,SW,232,3.0,9.0,56,0.00,,,0.00,Wunderground v.1.15,2013-03-17 23:00:00,
2013-03-17 18:05:00,61.3,45.5,29.81,SSW,198,1.0,7.0,56,0.00,,,0.00,Wunderground v.1.15,2013-03-17 23:05:00,
2013-03-17 18:10:00,61.4,45.6,29.81,South,184,3.0,7.0,56,0.00,,,0.00,Wunderground v.1.15,2013-03-17 23:10:00,
2013-03-17 18:15:00,61.3,45.0,29.81,South,187,2.0,8.0,55,0.00,,,0.00,Wunderground v.1.15,2013-03-17 23:15:00,
2013-03-17 18:20:00,61.2,45.4,29.81,South,182,1.0,3.0,56,0.00,,,0.00,Wunderground v.1.15,2013-03-17 23:20:00,
2013-03-17 18:25:00,61.1,44.8,29.82,SSE,167,2.0,7.0,55,0.00,,,0.00,Wunderground v.1.15,2013-03-17 23:25:00,
2013-03-17 18:30:00,61.0,45.2,29.82,South,169,4.0,4.0,56,0.00,,,0.00,Wunderground v.1.15,2013-03-17 23:30:00,
2013-03-17 18:35:00,61.0,44.7,29.82,South,185,2.0,7.0,55,0.00,,,0.00,Wunderground v.1.15,2013-03-17 23:35:00,
2013-03-17 18:40:00,60.8,44.5,29.82,ENE,69,2.0,6.0,55,0.00,,,0.00,Wunderground v.1.15,2013-03-17 23:40:00,
2013-03-17 18:45:00,60.4,44.2,29.83,South,174,4.0,6.0,55,0.00,,,0.00,Wunderground v.1.15,2013-03-17 23:45:00,
2013-03-17 18:50:00,60.1,43.9,29.82,SE,126,3.0,5.0,55,0.00,,,0.00,Wunderground v.1.15,2013-03-17 23:50:00,
2013-03-17 18:56:00,59.6,43.9,29.82,South,169,2.0,11.0,56,0.00,,,0.00,Wunderground v.1.15,2013-03-17 23:56:00,
2013-03-17 19:01:00,59.1,43.4,29.82,SE,126,2.0,4.0,56,0.00,,,0.00,Wunderground v.1.15,2013-03-18 00:01:00,
2013-03-17 19:06:00,58.8,43.1,29.82,South,186,1.0,6.0,56,0.00,,,0.00,Wunderground v.1.15,2013-03-18 00:06:00,
2013-03-17 19:11:00,58.5,43.3,29.82,SSE,159,1.0,3.0,57,0.00,,,0.00,Wunderground v.1.15,2013-03-18 00:11:00,
2013-03-17 19:16:00,58.4,43.2,29.82,ESE,104,3.0,7.0,57,0.00,,,0.00,Wunderground v.1.15,2013-03-18 00:16:00,
2013-03-17 19:21:00,58.2,43.0,29.83,SSW,198,0.0,4.0,57,0.00,,,0.00,Wunderground v.1.15,2013-03-18 00:21:00,
2013-03-17 19:26:00,58.0,43.3,29.82,ESE,111,2.0,5.0,58,0.00,,,0.00,Wunderground v.1.15,2013-03-18 00:26:00,
2013-03-17 19:31:00,57.7,43.0,29.83,SE,128,4.0,7.0,58,0.00,,,0.00,Wunderground v.1.15,2013-03-18 00:31:00,
2013-03-17 19:36:00,57.6,42.9,29.83,SE,126,0.0,7.0,58,0.00,,,0.00,Wunderground v.1.15,2013-03-18 00:36:00,
2013-03-17 19:41:00,57.5,43.3,29.82,SSE,155,1.0,7.0,59,0.00,,,0.00,Wunderground v.1.15,2013-03-18 00:41:00,
2013-03-17 19:46:00,57.3,43.1,29.83,ESE,123,1.0,7.0,59,0.00,,,0.00,Wunderground v.1.15,2013-03-18 00:46:00,
2013-03-17 19:51:00,57.1,43.3,29.83,SE,139,3.0,3.0,60,0.00,,,0.00,Wunderground v.1.15,2013-03-18 00:51:00,
2013-03-17 19:56:00,56.8,43.5,29.83,SE,140,3.0,6.0,61,0.00,,,0.00,Wunderground v.1.15,2013-03-18 00:56:00,
2013-03-17 20:01:00,56.6,43.3,29.83,SE,129,4.0,7.0,61,0.00,,,0.00,Wunderground v.1.15,2013-03-18 01:01:00,
2013-03-17 20:06:00,56.4,44.0,29.83,SSW,198,4.0,8.0,63,0.00,,,0.00,Wunderground v.1.15,2013-03-18 01:06:00,
2013-03-17 20:11:00,56.3,43.9,29.82,SE,131,2.0,2.0,63,0.00,,,0.00,Wunderground v.1.15,2013-03-18 01:11:00,
2013-03-17 20:16:00,56.0,45.2,29.83,South,186,1.0,5.0,67,0.00,,,0.00,Wunderground v.1.15,2013-03-18 01:16:00,
2013-03-17 20:21:00,55.8,45.0,29.83,ESE,119,2.0,6.0,67,0.00,,,0.00,Wunderground v.1.15,2013-03-18 01:21:00,
2013-03-17 20:27:00,55.5,45.1,29.83,SE,137,4.0,9.0,68,0.00,,,0.00,Wunderground v.1.15,2013-03-18 01:27:00,
2013-03-17 20:32:00,55.3,46.1,29.83,SSE,148,3.0,6.0,71,0.00,,,0.00,Wunderground v.1.15,2013-03-18 01:32:00,
2013-03-17 20:37:00,55.1,46.2,29.83,South,186,1.0,9.0,72,0.00,,,0.00,Wunderground v.1.15,2013-03-18 01:37:00,
2013-03-17 20:42:00,54.9,46.4,29.83,SE,140,6.0,7.0,73,0.00,,,0.00,Wunderground v.1.15,2013-03-18 01:42:00,
2013-03-17 20:47:00,54.8,46.7,29.83,SE,138,6.0,8.0,74,0.00,,,0.00,Wunderground v.1.15,2013-03-18 01:47:00,
2013-03-17 20:52:00,54.7,46.6,29.83,ESE,111,5.0,7.0,74,0.00,,,0.00,Wunderground v.1.15,2013-03-18 01:52:00,
2013-03-17 20:57:00,54.7,46.6,29.83,SE,144,3.0,7.0,74,0.00,,,0.00,Wunderground v.1.15,2013-03-18 01:57:00,
2013-03-17 21:02:00,54.6,46.5,29.82,SSE,155,3.0,5.0,74,0.00,,,0.00,Wunderground v.1.15,2013-03-18 02:02:00,
2013-03-17 21:07:00,54.5,46.7,29.82,SSE,161,4.0,7.0,75,0.00,,,0.00,Wunderground v.1.15,2013-03-18 02:07:00,
2013-03-17 21:12:00,54.4,47.0,29.82,SE,140,1.0,8.0,76,0.00,,,0.00,Wunderground v.1.15,2013-03-18 02:12:00,
2013-03-17 21:17:00,54.4,47.0,29.82,SSE,161,0.0,8.0,76,0.00,,,0.00,Wunderground v.1.15,2013-03-18 02:17:00,
2013-03-17 21:22:00,54.4,47.0,29.83,SE,140,4.0,5.0,76,0.00,,,0.00,Wunderground v.1.15,2013-03-18 02:22:00,
2013-03-17 21:27:00,54.3,46.9,29.83,ESE,112,2.0,9.0,76,0.00,,,0.00,Wunderground v.1.15,2013-03-18 02:27:00,
2013-03-17 21:32:00,54.3,46.9,29.83,SSE,164,2.0,10.0,76,0.00,,,0.00,Wunderground v.1.15,2013-03-18 02:32:00,
2013-03-17 21:37:00,54.3,47.2,29.83,ESE,121,7.0,10.0,77,0.00,,,0.00,Wunderground v.1.15,2013-03-18 02:37:00,
2013-03-17 21:42:00,54.5,47.1,29.83,NNE,19,4.0,11.0,76,0.00,,,0.00,Wunderground v.1.15,2013-03-18 02:42:00,
2013-03-17 21:47:00,54.7,47.3,29.83,SSE,150,3.0,11.0,76,0.00,,,0.00,Wunderground v.1.15,2013-03-18 02:47:00,
2013-03-17 21:52:00,54.8,47.4,29.83,ENE,76,3.0,10.0,76,0.00,,,0.00,Wunderground v.1.15,2013-03-18 02:52:00,
2013-03-17 21:57:00,54.9,47.1,29.83,ESE,109,4.0,10.0,75,0.00,,,0.00,Wunderground v.1.15,2013-03-18 02:57:00,
2013-03-17 22:02:00,55.1,47.3,29.83,East,88,3.0,11.0,75,0.00,,,0.00,Wunderground v.1.15,2013-03-18 03:02:00,
2013-03-17 22:07:00,55.1,47.3,29.83,SE,138,5.0,11.0,75,0.00,,,0.00,Wunderground v.1.15,2013-03-18 03:07:00,
2013-03-17 22:12:00,55.1,47.3,29.83,SSE,167,2.0,6.0,75,0.00,,,0.00,Wunderground v.1.15,2013-03-18 03:12:00,
2013-03-17 22:17:00,55.0,47.2,29.84,SSW,205,5.0,9.0,75,0.00,,,0.00,Wunderground v.1.15,2013-03-18 03:17:00,
2013-03-17 22:23:00,55.0,47.2,29.84,South,175,9.0,9.0,75,0.00,,,0.00,Wunderground v.1.15,2013-03-18 03:23:00,
2013-03-17 22:28:00,55.1,47.3,29.84,South,171,3.0,9.0,75,0.00,,,0.00,Wunderground v.1.15,2013-03-18 03:28:00,
2013-03-17 22:33:00,55.1,47.3,29.84,SSE,161,5.0,12.0,75,0.00,,,0.00,Wunderground v.1.15,2013-03-18 03:33:00,
2013-03-17 22:38:00,55.1,47.3,29.84,South,174,2.0,12.0,75,0.00,,,0.00,Wunderground v.1.15,2013-03-18 03:38:00,
2013-03-17 22:43:00,55.1,47.3,29.84,SE,144,5.0,11.0,75,0.00,,,0.00,Wunderground v.1.15,2013-03-18 03:43:00,
2013-03-17 22:48:00,55.2,47.4,29.84,SSE,148,4.0,13.0,75,0.00,,,0.00,Wunderground v.1.15,2013-03-18 03:48:00,
2013-03-17 22:53:00,55.1,47.7,29.83,South,174,7.0,8.0,76,0.00,,,0.00,Wunderground v.1.15,2013-03-18 03:53:00,
2013-03-17 22:58:00,55.0,47.6,29.83,SW,229,3.0,8.0,76,0.00,,,0.00,Wunderground v.1.15,2013-03-18 03:58:00,
2013-03-17 23:00:00,54.9,47.5,29.84,SE,142,6.0,10.0,76,0.00,,,0.00,Wunderground v.1.15,2013-03-18 04:00:00,
2013-03-17 23:01:00,54.9,47.5,29.84,SSE,155,10.0,10.0,76,0.00,,,0.00,Wunderground v.1.15,2013-03-18 04:01:00,
2013-03-17 23:06:00,54.8,47.4,29.84,SSE,161,8.0,12.0,76,0.00,,,0.00,Wunderground v.1.15,2013-03-18 04:06:00,
2013-03-17 23:11:00,54.8,47.4,29.83,SSE,150,7.0,7.0,76,0.00,,,0.00,Wunderground v.1.15,2013-03-18 04:11:00,
2013-03-17 23:17:00,54.5,47.4,29.83,SE,131,6.0,9.0,77,0.00,,,0.00,Wunderground v.1.15,2013-03-18 04:17:00,
2013-03-17 23:22:00,54.2,47.5,29.83,SE,139,6.0,10.0,78,0.00,,,0.00,Wunderground v.1.15,2013-03-18 04:22:00,
2013-03-17 23:27:00,54.0,47.3,29.83,SSE,149,3.0,10.0,78,0.00,,,0.00,Wunderground v.1.15,2013-03-18 04:27:00,
2013-03-17 23:32:00,53.9,47.2,29.83,SE,130,5.0,7.0,78,0.00,,,0.00,Wunderground v.1.15,2013-03-18 04:32:00,
2013-03-17 23:37:00,53.9,47.2,29.83,SSE,149,5.0,11.0,78,0.00,,,0.00,Wunderground v.1.15,2013-03-18 04:37:00,
2013-03-17 23:42:00,53.9,47.5,29.83,SE,143,4.0,7.0,79,0.00,,,0.00,Wunderground v.1.15,2013-03-18 04:42:00,
2013-03-17 23:47:00,54.0,47.6,29.83,SE,136,12.0,12.0,79,0.00,,,0.00,Wunderground v.1.15,2013-03-18 04:47:00,
2013-03-17 23:52:00,54.1,47.7,29.83,SE,130,5.0,5.0,79,0.00,,,0.00,Wunderground v.1.15,2013-03-18 04:52:00,
2013-03-17 23:57:00,54.1,47.7,29.83,ESE,119,2.0,13.0,79,0.00,,,0.00,Wunderground v.1.15,2013-03-18 04:57:00,